User: anonymous   Login
Location: Unspecified
(0.0000°N, 0.0000°E)
Time: 12:37:10
(UTC+00:00)
Language:

Kosmos-1816 - Orbit

View from above orbital plane
View from above orbital plane
View from above satellite
View from above satellite

Ground track
Ground track

The orbit data is extracted from the following two-line orbital elements,

1 17359U 87009A   18113.97004681 +.00000032 +00000-0 +18155-4 0  9997
2 17359 082.9243 073.0185 0031362 219.4458 201.4002 13.74427134566302
Epoch (UTC): 23 April 2018 23:16:52
Eccentricity: 0.0031362
inclination: 82.9243°
perigee height: 960 km
apogee height: 1007 km
right ascension of ascending node: 73.0185°
argument of perigee: 219.4458°
revolutions per day: 13.74427134
mean anomaly at epoch: 201.4002°
orbit number at epoch: 56630

The dashed part of the orbit path shows where the satellite is in the earth's shadow,  

DLR